Cloud_Cover
4 4 1 1 42 93 78 90 99 7 4 2 3 6 5 14 42 100 65 61 81 6 76 51 38 89 88 14 0 0 2 5 1 4 2 5 5 5 7 5 13 5 5 5 0 1 0 0 0
0 0 41 59 29 100 86 89 83 12 0 0 0 8 34 0 0 3 2 0 2 3 0 0 0 0 0 0 0 0 4 0 0 5 3 4 5 41 18 5 12 6 5 5 5 3 0 0 6
0 72 28 100 82 96 59 54 2 0 0 0 0 0 0 2 0 0 0 0 0 0 0 0 0 0 0 0 0 0 0 0 0 5 3 1 5 32 100 93 95 26 5 5 5 5 5 4 0
1 39 92 98 100 95 74 5 0 0 0 0 0 0 0 0 0 0 0 0 0 0 0 0 0 2 1 0 0 0 0 0 5 5 0 0 5 29 68 99 97 6 6 5 5 5 5 4 4
4 75 99 100 58 98 39 12 5 4 0 0 2 0 0 0 0 0 0 0 0 0 3 0 0 0 0 0 0 0 0 6 6 29 0 10 15 6 11 89 94 18 20 5 8 5 9 5 0
98 38 96 79 94 94 43 5 5 1 0 0 0 0 0 0 0 0 0 0 13 12 0 0 0 0 0 0 0 0 0 5 5 5 47 99 100 10 30 53 5 17 47 16 100 50 19 16 5
22 51 64 90 91 54 32 30 10 1 0 0 0 0 0 0 0 0 0 0 13 46 3 12 1 0 0 0 0 3 1 5 5 5 5 76 100 10 5 40 92 100 47 20 87 99 99 88 7
6 10 100 99 64 51 2 34 3 34 0 0 5 53 0 0 0 0 0 0 2 16 67 8 2 6 23 18 0 1 7 30 69 4 5 5 82 50 96 100 100 100 100 31 100 100 100 6 5
14 35 94 73 91 17 5 9 4 0 5 5 0 4 4 4 4 0 0 0 0 2 88 60 0 99 63 100 12 0 0 6 59 100 100 100 100 100 100 68 52 6 100 77 99 100 99 5 5
96 39 42 12 30 6 5 64 5 64 5 9 100 4 5 5 0 4 0 0 0 0 25 16 84 0 96 3 67 23 2 2 22 52 20 78 99 100 86 97 44 69 9 70 100 100 98 5 97
99 100 3 6 36 27 48 32 5 62 98 72 94 94 0 12 85 8 82 17 4 0 5 5 29 36 5 6 26 17 30 16 84 16 96 23 100 30 7 38 69 100 67 12 39 62 100 11 66
98 3 40 5 80 85 33 41 76 56 34 25 46 100 12 0 100 23 0 64 88 1 2 5 5 2 38 11 86 74 100 100 74 10 2 2 4 41 30 19 41 21 100 99 66 100 100 92 92
86 33 11 7 94 27 21 20 96 32 3 1 2 16 89 27 17 90 3 73 93 11 10 4 100 100 100 99 72 76 72 95 100 100 100 36 16 6 20 2 1 1 37 100 100 75 100 95 58
5 50 50 5 78 54 72 89 8 13 0 0 2 3 72 64 5 3 0 0 2 91 100 51 42 30 38 70 100 89 9 100 99 82 87 100 75 44 70 5 5 5 5 82 88 100 84 100 100
3 98 89 16 88 97 88 100 42 0 0 5 2 5 11 0 0 0 0 3 4 2 5 5 5 5 1 5 80 89 54 85 99 62 99 11 65 100 84 81 58 10 5 33 27 32 8 96 50
27 90 100 40 3 98 89 96 6 0 9 10 5 4 4 0 1 1 5 50 18 79 5 5 5 22 100 100 100 100 100 100 100 100 100 56 9 6 92 100 100 100 100 94 100 59 84 74 94
100 44 96 58 0 22 43 93 46 0 0 5 5 1 0 3 3 4 5 1 2 0 0 0 0 0 36 15 38 25 62 100 100 100 100 4 3 9 15 64 100 100 100 100 100 100 72 63 28
100 100 89 67 39 1 92 100 1 0 0 0 0 0 3 5 3 0 0 0 0 0 0 0 0 0 0 0 0 0 0 0 0 1 0 31 97 93 92 40 72 100 100 100 100 100 100 80 54
57 90 65 5 4 40 32 5 23 0 0 0 0 0 0 0 0 0 0 0 0 0 0 0 0 0 0 0 0 0 0 0 0 0 0 0 0 73 100 100 100 100 100 100 100 100 100 100 100
6 91 58 41 6 98 7 2 4 0 0 0 0 0 0 0 0 0 0 0 0 0 0 0 0 0 0 0 0 0 0 0 8 1 0 0 0 0 12 92 100 67 82 98 100 100 100 100 100
77 37 8 65 37 5 5 3 0 0 0 0 0 0 0 0 0 0 0 0 0 0 0 0 0 0 0 0 0 0 0 0 1 92 4 28 10 47 1 81 92 18 76 99 80 46 48 100 100
100 3 5 70 56 85 7 100 7 11 0 0 0 0 0 0 0 0 0 0 0 0 0 0 0 0 0 0 0 0 0 0 0 0 0 18 89 25 38 12 56 100 90 3 8 21 24 99 100
84 5 4 5 53 99 7 97 100 100 5 3 3 0 0 0 0 0 0 0 0 0 0 0 0 0 0 0 0 0 0 0 0 19 2 0 0 0 0 41 42 31 100 93 6 9 97 55 100
24 6 40 32 90 100 100 68 75 100 100 86 55 5 1 3 0 0 0 0 0 0 0 0 0 0 0 0 0 0 0 0 0 6 40 40 59 23 0 0 0 34 64 58 11 64 59 88 29
14 100 68 54 90 93 23 2 94 83 99 47 99 74 50 10 4 2 0 0 0 0 0 0 0 0 0 0 0 0 0 0 0 0 0 2 44 100 100 26 0 0 0 0 6 21 7 77 65
86 76 100 43 70 100 0 70 72 7 33 0 0 0 5 25 5 5 5 1 0 0 0 0 0 0 0 0 0 0 0 0 0 0 0 0 0 0 92 100 0 0 3 4 0 5 2 8 35
10 24 88 0 58 16 100 78 2 0 0 2 1 5 5 5 10 38 7 5 0 0 0 0 0 0 0 0 0 0 0 0 0 0 0 0 0 0 0 0 7 0 0 1 5 7 5 2 7
0 6 0 87 86 45 100 100 75 74 5 0 0 5 6 20 76 76 5 5 0 0 0 0 0 0 0 0 0 0 0 0 0 0 0 0 1 0 23 43 8 40 0 0 0 4 5 5 5
1 11 58 2 2 62 85 100 67 1 0 0 0 0 1 2 1 5 6 1 0 0 0 0 0 0 0 0 0 0 0 0 0 0 0 0 1 0 48 52 93 100 31 0 67 98 21 15 25
0 0 0 0 5 59 3 0 8 0 0 0 0 0 0 0 0 0 0 0 0 0 0 0 0 0 0 0 0 0 0 0 0 0 0 0 0 3 92 63 67 38 1 16 27 38 50 19 94